Hourly Data Report for July 12, 2021

BONAVISTA
NEWFOUNDLAND
Current Station Operator: ECCC - MSC

48°40'02.000" N
53°06'51.000" W
25.60 m
8400601
71178
AVA

Download Data

Hourly Data (July 2021)
Hourly Data Report for July 12, 2021
TIME
LST
Temp Definition
°C
Dew Point Definition
°C
Rel Hum Definition
%
Precip. Amount Definition
mm

Wind Dir Definition
10's deg

Wind Spd Definition
km/h
Visibility Definition
km
Stn Press Definition
kPa
Hmdx Definition


Wind Chill Definition


Weather Definition


00:30 11.5 11.1 98 0.0 16 29   101.36     LegendNANA
01:30 11.7 11.4 98 0.0 16 32   101.33     LegendNANA
02:30 12.1 11.8 98 0.0 17 26   101.29     LegendNANA
03:30 12.1 11.8 98 0.0 16 32   101.22     LegendNANA
04:30 11.9 11.6 98 0.0 17 30   101.18     LegendNANA
05:30 12.2 11.9 98 0.0 20 20   101.20     LegendNANA
06:30 12.8 12.0 95 0.0 19 25   101.20     LegendNANA
07:30 14.7 12.9 89 0.0 17 15   101.16     LegendNANA
08:30 14.8 12.2 84 0.0 23 16   101.12     LegendNANA
09:30 18.3 11.7 65 0.0 24 14   101.03     LegendNANA
10:30 18.6 12.1 66 0.0 25 15   100.96     LegendNANA
11:30 20.5 13.6 65 0.0 25 15   100.88     LegendNANA
12:30 21.4 13.3 60 0.0 3 8   100.79     LegendNANA
13:30 22.2 12.2 53 0.0 6 11   100.71 25   LegendNANA
14:30 23.3 12.8 52 0.0 14 23   100.63 26   LegendNANA
15:30 19.3 10.9 58 0.0 22 27   100.70     LegendNANA
16:30 15.6 12.8 83 0.0 25 39   100.73     LegendNANA
17:30 14.6 13.5 93 1.5 32 14   100.64     LegendNANA
18:30 12.4 11.6 95 0.0 35 40   100.80     LegendNANA
19:30 10.4 9.5 94 2.4 31 51   100.99     LegendNANA
20:30 9.7 8.6 93 0.0 33 59   101.03     LegendNANA
21:30 9.4 8.0 91 1.2 33 69   101.11     LegendNANA
22:30 9.1 7.3 89 0.0 32 63   101.19     LegendNANA
23:30 8.9 7.2 89 0.3 32 50   101.24     LegendNANA

Notes on Data Quality.

Legend

  • E = Estimated
  • M = Missing
  • NA = Not Available*
  • [empty] = Indicates an unobserved value
Date modified: